COSMOS 2491 DEB, 57548

Orbit data source: Space-Track

COSMOS 2491 DEB, 57548 is space debris in LEO originally from a launch on Wed, 25 Dec 2013 UTC launched from the Plesetsk Missile And Space Complex (PKMTR). Debris objects in space refer to the collection of defunct objects orbiting the Earth. Examples of debris include non-operational satellites, rocket bodies, and fragments generated from explosions, collisions, or faulty payload assembly.

Loading next visibility...
Identifier
57548, 2013-076AK
Orbit
LEO
Country
Flag of CISCIS
Related business
Manufacturer
TsNIIKhM
Mission
Spacecraft
Bus & Motor
Unknown
Mass
Unknown
Launch date (UTC)
2013-12-25 (12 years ago)
Launch vehicle
Unknown
Launch site
Plesetsk Missile And Space Complex (PKMTR)
Object type
Payload
Rocket body
Debris
Shape & HBR
Unknown shape, 0.1 m
Radar Cross Section
Small (<0.1 m²)

Expand to show TLE details & history
Last TLE update: 3 months ago

TLE from 3 months ago
0 COSMOS 2491 DEB
1 57548U 13076AK  26071.23548316  .00000065  00000-0  47701-3 0  9997
2 57548  82.8106 265.2104 0051222 115.9292 244.7072 12.28362606127380
Epoch: 2026-03-12T05:39Z
TLE epoch observation values (Epoch: 2026-03-12T05:39:05.745Z)
Latitude
0.00007°
Longitude
10.54819°
Altitude
1,576.547 km
Speed
7.072 km/s
True Right ascension
17h 40m 50s
True Declination
0° 00' 00"
Sunlit
Object was in daylight at epoch
Visualization orbit readout
Latitude
Unknown
Longitude
Unknown
Altitude
Unknown
Speed
Unknown
Apparent Right ascension
Unknown
Apparent Declination
Unknown
Sunlit
N/A
Visualization observer readout
Local Sidereal Time
21:38:37
Azimuth
Unknown
Elevation
Unknown
Doppler factor
Unknown
Orbital elements
Apogee altitude
1,594.313 km
Perigee altitude
1,513.056 km
Semi-major axis
7,931.822 km
Eccentricity
0.00512
Inclination
82.8106°
RAAN
265.2104°
Arg. of periapsis
115.9292°
True anomaly
244.17796°
Mean anomaly
244.7072°
Eccentric anomaly
244.44244°
Mean motion
3.07244 °/min
Orbital period
117.17 mins
BSTAR
0.00047701
Loading maneuver chart data...
Computing Atmospheric mass density...
Loading historical data...
Loading historical data...
Loading historical data...
Loading historical data...
Loading historical data...
Loading historical data...
Loading historical data...

Documentation

Showing up to 5 results
|